User: anonymous   Login
Location: Writing-on-Stone Provincial Park
(49.0825°N, 111.6163°W)
Time: 22:25:21
(UTC-06:00)
Language:

BREEZE-M DEB (TANK) - Orbit

View from above orbital plane
View from above orbital plane
View from above satellite
View from above satellite

Ground track
Ground track

The orbit data is extracted from the following two-line orbital elements,

1 29649U 06056B   16146.08461197  .00002267  00000-0  31244-3 0  9995
2 29649  49.4572 157.4639 5398996 279.2965  26.2200  4.98426182168390
Epoch (UTC): 25 May 2016 02:01:50
Eccentricity: 0.5398996
inclination: 49.4572°
perigee height: 282 km
apogee height: 15914 km
right ascension of ascending node: 157.4639°
argument of perigee: 279.2965°
revolutions per day: 4.98426182
mean anomaly at epoch: 26.2200°
orbit number at epoch: 16839

The dashed part of the orbit path shows where the satellite is in the earth's shadow,  

DLR